This demonstration page uses our WeatherBlox Daily Observations layout. Learn more.

39.92423, -83.80882

Hourly Observations for June 19, 2020

Temp ( °F °C ) Dew Point ( °F °C ) Humidity (%) Winds ( mph kmh ) Pressure ( in mb ) Visibility ( mi km ) Precip ( " mm )
12:10 am 00:10 Mostly Cloudy with Mist and Fog 64 18 64 18 100 100 Calm 30.02 1017 1.5 2.41401 0 0
12:15 am 00:15 Mostly Cloudy with Mist and Fog 64 18 64 18 100 100 Calm 30.03 1017 0.75 1.207005 0 0
12:21 am 00:21 Partly Cloudy with Mist and Fog 64 18 64 18 100 100 Calm 30.03 1017 1.25 2.011675 0 0
12:31 am 00:31 Mostly Clear with Mist and Fog 64 18 64 18 100 100 Calm 30.03 1017 6 9.65604 0 0
12:44 am 00:44 Clear with Mist and Fog 63 17 63 17 100 100 Calm 30.03 1017 1.25 2.011675 0 0
12:46 am 00:46 Clear with Mist and Fog 63 17 63 17 100 100 Calm 30.03 1017 0.75 1.207005 0 0
12:53 am 00:53 Clear with Fog 63 17 63 17 100 100 E 3 6 30.03 1017 0.5 0.80467 0 0
12:56 am 00:56 Clear with Fog 63 17.2 63 17.2 100 100 E 6 9 30.04 1017 0.5 0.80467 0 0
1:00 am 01:00 Clear with Mist and Fog 63 17 63 17 100 100 E 6 9 30.03 1017 1 1.60934 0 0
1:06 am 01:06 Clear with Mist and Fog 63 17 63 17 100 100 ESE 6 9 30.03 1017 3 4.82802 0 0
1:56 am 01:56 Clear 63 17.2 63 17.2 100 100 ESE 3 6 30.03 1017 8 12.87472 0 0
2:56 am 02:56 Clear with Mist and Fog 62 16.7 62 16.7 100 100 Calm 30.03 1017 2.5 4.02335 0 0
3:03 am 03:03 Clear with Mist and Fog 61 16 61 16 100 100 Calm 30.03 1017 1.5 2.41401 0 0
3:07 am 03:07 Clear with Mist and Fog 61 16 61 16 100 100 Calm 30.03 1017 3 4.82802 0 0
3:11 am 03:11 Clear with Mist and Fog 61 16 61 16 100 100 Calm 30.03 1017 1.75 2.816345 0 0
3:19 am 03:19 Mostly Clear with Mist and Fog 61 16 61 16 100 100 Calm 30.03 1017 0.75 1.207005 0 0
3:23 am 03:23 Partly Cloudy with Mist and Fog 61 16 61 16 100 100 E 3 6 30.03 1017 1.25 2.011675 0 0
3:45 am 03:45 Partly Cloudy with Mist and Fog 61 16 61 16 100 100 Calm 30.03 1017 4 6.43736 0 0
3:56 am 03:56 Mostly Cloudy with Mist and Fog 61 16.1 61 16.1 100 100 Calm 30.04 1017 4 6.43736 0 0
4:02 am 04:02 Mostly Cloudy with Mist and Fog 61 16 61 16 100 100 Calm 30.04 1017 1.5 2.41401 0 0
4:33 am 04:33 Mostly Cloudy with Mist and Fog 61 16 61 16 100 100 Calm 30.04 1017 3 4.82802 0 0
4:56 am 04:56 Cloudy with Mist and Fog 61 16.1 61 16.1 100 100 Calm 30.04 1017 4 6.43736 0 0
5:56 am 05:56 Partly Cloudy with Mist and Fog 62 16.7 62 16.7 100 100 Calm 30.04 1017 4 6.43736 0 0
6:13 am 06:13 Mostly Cloudy with Mist and Fog 63 17 63 17 100 100 Calm 30.04 1017 2 3.21868 0 0
6:56 am 06:56 Mostly Cloudy with Mist and Fog 62 16.7 62 16.7 100 100 Calm 30.06 1018 1.75 2.816345 0 0
7:12 am 07:12 Mostly Cloudy with Mist and Fog 63 17 63 17 100 100 Calm 30.04 1017 2 3.21868 0 0
7:46 am 07:46 Sunny with Mist and Fog 64 18 64 18 100 100 ESE 5 7 30.04 1017 3 4.82802 0 0
7:56 am 07:56 Sunny with Mist and Fog 65 18.3 65 18.3 100 100 E 5 7 30.05 1018 3 4.82802 0 0
8:56 am 08:56 Sunny 69 20.6 68 20 96 96 Calm 30.06 1018 8 12.87472 0.25 6.35
9:56 am 09:56 Sunny 73 22.8 67 19.4 81 81 ESE 6 9 30.07 1018 10 16.0934 0.25 6.35
10:56 am 10:56 Sunny 75 23.9 67 19.4 76 76 Calm 30.07 1018 10 16.0934 0.35 8.89
11:56 am 11:56 Mostly Cloudy 77 25 65 18.3 66 66 S 5 7 30.07 1018 10 16.0934 1.24 31.496
12:10 pm 12:10 Partly Cloudy 79 26 64 18 61 61 Calm 30.04 1017 10 16.0934 0.05 1.27
12:56 pm 12:56 Mostly Sunny 79 26.1 63 17.2 58 58 Calm 30.07 1018 10 16.0934 0.08 2.032
1:56 pm 13:56 Partly Cloudy 82 27.8 65 18.3 56 56 ESE 5 7 30.05 1018 7 11.26538 0.06 1.524
2:56 pm 14:56 Partly Cloudy 82 27.8 64 17.8 55 55 Calm 30.04 1017 10 16.0934 0 0
3:56 pm 15:56 Cloudy 83 28.3 62 16.7 49 49 W 5 7 30.02 1017 10 16.0934 0.24 6.096
4:56 pm 16:56 Mostly Cloudy 85 29.4 63 17.2 48 48 VRB 3 6 30.01 1016 10 16.0934 0.18 4.572
5:56 pm 17:56 Partly Cloudy 86 30 61 16.1 43 43 W 10 17 30.01 1016 10 16.0934 0 0
6:56 pm 18:56 Mostly Sunny 86 30 60 15.6 42 42 NW 10 17 30 1016 10 16.0934 0 0
7:56 pm 19:56 Partly Cloudy 84 28.9 61 16.1 46 46 NW 6 9 30 1016 10 16.0934 0 0
8:56 pm 20:56 Partly Cloudy 75 23.9 64 17.8 69 69 E 9 15 30.02 1017 10 16.0934 0 0
9:56 pm 21:56 Clear 71 21.7 64 17.8 79 79 ESE 5 7 30.04 1017 10 16.0934 0 0
10:56 pm 22:56 Mostly Clear 70 21.1 64 17.8 82 82 Calm 30.05 1018 10 16.0934 0.39 9.906
11:56 pm 23:56 Clear 67 19.4 63 17.2 87 87 ESE 5 7 30.05 1018 10 16.0934 0.92 23.368

Powered by AerisWeather